| time (UTC) | temp F | wind direction | speed MPH | gust MPH | rain 1hr in | rain 24hr in | rain mn in | humidity % | barometer mb |
| 20260504021539 | 87 | 177 | 0.0 | 3.0 | 0.00 | 0.00 | 0.00 | 25 | 1004.4 |
| 20260504020038 | 88 | 176 | 2.0 | 3.0 | 0.00 | 0.00 | 0.00 | 24 | 1004.5 |
| 20260504014537 | 89 | 178 | 0.0 | 3.0 | 0.00 | 0.00 | 0.00 | 25 | 1004.5 |
| 20260504013039 | 88 | 178 | 2.0 | 6.0 | 0.00 | 0.00 | 0.00 | 22 | 1004.6 |
| 20260504011529 | 89 | 178 | 0.0 | 7.0 | 0.00 | 0.00 | 0.00 | 23 | 1004.8 |
| 20260504010027 | 87 | 177 | 5.0 | 8.0 | 0.00 | 0.00 | 0.00 | 23 | 1004.9 |
| 20260504004527 | 88 | 177 | 4.0 | 10.0 | 0.00 | 0.00 | 0.00 | 21 | 1005.1 |
| 20260504003023 | 87 | 178 | 8.0 | 13.0 | 0.00 | 0.00 | 0.00 | 21 | 1005.2 |
| 20260504001530 | 87 | 176 | 8.0 | 13.0 | 0.00 | 0.00 | 0.00 | 22 | 1005.2 |
| 20260504000022 | 87 | 177 | 6.0 | 14.0 | 0.00 | 0.00 | 0.00 | 26 | 1005.1 |
| 20260503234518 | 87 | 177 | 9.0 | 14.0 | 0.00 | 0.00 | 0.00 | 23 | 1005.4 |
| 20260503233019 | 87 | 177 | 8.0 | 17.0 | 0.00 | 0.00 | 0.00 | 31 | 1005.5 |
| 20260503231515 | 87 | 176 | 9.0 | 12.0 | 0.00 | 0.00 | 0.00 | 27 | 1005.7 |
| 20260503230031 | 87 | 176 | 9.0 | 13.0 | 0.00 | 0.00 | 0.00 | 27 | 1005.9 |
| 20260503224513 | 88 | 176 | 6.0 | 10.0 | 0.00 | 0.00 | 0.00 | 28 | 1006.1 |
| 20260503223008 | 88 | 177 | 4.0 | 7.0 | 0.00 | 0.00 | 0.00 | 32 | 1006.3 |
| 20260503221507 | 89 | 176 | 6.0 | 9.0 | 0.00 | 0.00 | 0.00 | 28 | 1006.6 |
| 20260503220003 | 88 | 156 | 0.0 | 8.0 | 0.00 | 0.00 | 0.00 | 28 | 1006.8 |
| 20260503214559 | 87 | 177 | 6.0 | 11.0 | 0.00 | 0.00 | 0.00 | 29 | 1007.0 |
| 20260503213102 | 87 | 177 | 3.0 | 9.0 | 0.00 | 0.00 | 0.00 | 30 | 1007.1 |
| 20260503211556 | 87 | 178 | 6.0 | 11.0 | 0.00 | 0.00 | 0.00 | 30 | 1007.3 |
| 20260503210054 | 86 | 178 | 3.0 | 11.0 | 0.00 | 0.00 | 0.00 | 30 | 1007.5 |
| 20260503204611 | 85 | 177 | 9.0 | 13.0 | 0.00 | 0.00 | 0.00 | 32 | 1007.6 |
| 20260503203047 | 85 | 176 | 2.0 | 12.0 | 0.00 | 0.00 | 0.00 | 33 | 1007.9 |
| 20260503201544 | 83 | 178 | 4.0 | 12.0 | 0.00 | 0.00 | 0.00 | 37 | 1007.9 |
| 20260503200041 | 83 | 176 | 5.0 | 8.0 | 0.00 | 0.00 | 0.00 | 38 | 1008.2 |
| 20260503194541 | 83 | 177 | 2.0 | 10.0 | 0.00 | 0.00 | 0.00 | 39 | 1008.4 |
| 20260503193044 | 82 | 177 | 1.0 | 7.0 | 0.00 | 0.00 | 0.00 | 41 | 1008.5 |
| 20260503191600 | 80 | 176 | 4.0 | 11.0 | 0.00 | 0.00 | 0.00 | 41 | 1008.7 |
| 20260503190033 | 79 | 178 | 5.0 | 10.0 | 0.00 | 0.00 | 0.00 | 43 | 1008.9 |
| 20260503184525 | 78 | 176 | 4.0 | 9.0 | 0.00 | 0.00 | 0.00 | 43 | 1009.0 |
| 20260503183023 | 78 | 178 | 5.0 | 11.0 | 0.00 | 0.00 | 0.00 | 43 | 1009.1 |
| 20260503181519 | 77 | 179 | 3.0 | 11.0 | 0.00 | 0.00 | 0.00 | 47 | 1009.2 |
| 20260503180019 | 75 | 177 | 7.0 | 12.0 | 0.00 | 0.00 | 0.00 | 49 | 1009.3 |
| 20260503174514 | 75 | 176 | 4.0 | 10.0 | 0.00 | 0.00 | 0.00 | 51 | 1009.2 |
| 20260503173011 | 74 | 179 | 3.0 | 11.0 | 0.00 | 0.00 | 0.00 | 53 | 1009.3 |
| 20260503171510 | 73 | 162 | 6.0 | 14.0 | 0.00 | 0.00 | 0.00 | 52 | 1009.4 |
| 20260503160106 | 63 | 177 | 1.0 | 3.0 | 0.00 | 0.00 | 0.00 | 84 | 1009.7 |
| 20260503100105 | 54 | 150 | 0.0 | 0.0 | 0.00 | 0.00 | 0.00 | 93 | 1010.1 |
| 20260503081543 | 56 | 158 | 1.0 | 3.0 | 0.00 | 0.00 | 0.00 | 91 | 1010.5 |
| 20260503071538 | 56 | 177 | 3.0 | 5.0 | 0.00 | 0.00 | 0.00 | 90 | 1010.4 |
| 20260503054549 | 62 | 179 | 3.0 | 8.0 | 0.00 | 0.00 | 0.00 | 80 | 1010.5 |
| 20260503053033 | 60 | 147 | 3.0 | 9.0 | 0.00 | 0.00 | 0.00 | 84 | 1010.8 |
| 20260503051532 | 62 | 178 | 0.0 | 2.0 | 0.00 | 0.00 | 0.00 | 79 | 1010.3 |
| 20260503050034 | 62 | 176 | 0.0 | 6.0 | 0.00 | 0.00 | 0.00 | 78 | 1010.3 |
| 20260503044538 | 62 | 177 | 1.0 | 9.0 | 0.00 | 0.00 | 0.00 | 79 | 1010.3 |
| 20260503043038 | 61 | 159 | 6.0 | 9.0 | 0.00 | 0.00 | 0.00 | 81 | 1010.3 |
| 20260503041530 | 61 | 177 | 2.0 | 5.0 | 0.00 | 0.00 | 0.00 | 79 | 1010.7 |
| 20260503040029 | 62 | 178 | 0.0 | 4.0 | 0.00 | 0.00 | 0.00 | 78 | 1010.5 |
| 20260503034528 | 62 | 165 | 5.0 | 7.0 | 0.00 | 0.00 | 0.00 | 79 | 1010.3 |
| 20260503033027 | 62 | 178 | 5.0 | 9.0 | 0.00 | 0.00 | 0.00 | 79 | 1010.2 |
| 20260503031527 | 62 | 175 | 7.0 | 9.0 | 0.00 | 0.00 | 0.00 | 80 | 1010.1 |
| 20260503030031 | 63 | 178 | 3.0 | 5.0 | 0.00 | 0.00 | 0.00 | 78 | 1010.3 |
| 20260503024525 | 63 | 179 | 2.0 | 4.0 | 0.00 | 0.00 | 0.00 | 77 | 1010.7 |
| 20260503023025 | 63 | 179 | 7.0 | 12.0 | 0.00 | 0.00 | 0.00 | 75 | 1010.8 |